Voltar ao catálogo

HAWK-11C

AtivoMilitarVLEO
NORAD 62381·PAYLOAD·🇺🇸 United States

Lançado Dec 21, 2024 de Vandenberg Space Force Base

Loading…

Próximas Passagens (próximas 24 horas)

TLE

AtualizadoSource: Space-Track

Época: Sep 14, 2026, 02:39 UTC

1 62381U 24247E   26257.11100464  .00005765  00000-0  19658-3 0  9993
2 62381  45.0032 161.2467 0003197   0.3240 359.7646 15.31359520 96630

Acompanhe HAWK-11C em tempo real com AllMySat

Download on the App Store